Plainview, TX

3:49 PM CDT on September 20, 2017 (GMT -0500)
Hale County

Weather History for KPVW - October, 2012

Change the Weather History Date:

Sunday, October 21, 2012

  Actual Average Record
Temperature  
Mean Temperature 69 °F -  
Max Temperature 87 °F 68 °F 90 °F (1921)
Min Temperature 51 °F 44 °F 26 °F (1916)
Cooling Degree Days 4    
Growing Degree Days 19 (Base 50)    
Moisture  
Dew Point 36 °F    
Average Humidity 36    
Maximum Humidity 67    
Minimum Humidity 13    
Precipitation  
Precipitation 0.00 in - - ()
Sea Level Pressure  
Sea Level Pressure 29.81 in    
Wind  
Wind Speed 11 mph (WSW)    
Max Wind Speed 24 mph    
Max Gust Speed 30 mph    
Visibility 10 miles    
Events      
Averages and records for this station are not official NWS values.
T = Trace of Precipitation, MM = Missing Value Source: NWS Daily Summary

Daily Weather History Graph

Daily Weather History Graph

Search for Another Location

Airport or City:

Trip Planner

Search our weather history database for the weather conditions in past years. The results will help you decide how hot, cold, wet, or windy it might be!

Date:

Astronomy

Oct. 21, 2012 Rise Set
Actual Time 7:57 AM CDT 7:04 PM CDT
Civil Twilight 7:32 AM CDT 7:30 PM CDT
Nautical Twilight 7:02 AM CDT 7:59 PM CDT
Astronomical Twilight 6:33 AM CDT 8:28 PM CDT
Moon 2:14 PM CDT (10/21) 12:01 AM CDT (10/21)
Length of Visible Light 11h 58m
Length of Day
11h 07m
Waxing Crescent, 45% of the Moon is Illuminated
Oct 21
Waxing Crescent
Oct 21
First Quarter
Oct 29
Full
Nov 6
Last Quarter
Nov 13
New

Hourly Weather History & Observations

Time (CDT) Temp. Dew Point Humidity Pressure Visibility Wind Dir Wind Speed Gust Speed Precip Events Conditions
12:15 AM 62.6 °F 33.8 °F 34% 29.77 in 10.0 mi SW 9.2 mph - N/A   Clear
12:35 AM 60.8 °F 35.6 °F 39% 29.77 in 10.0 mi SW 8.1 mph - N/A   Clear
12:55 AM 59.0 °F 37.4 °F 45% 29.77 in 10.0 mi SSW 8.1 mph - N/A   Clear
1:15 AM 59.0 °F 37.4 °F 45% 29.78 in 10.0 mi SSW 6.9 mph - N/A   Clear
1:35 AM 59.0 °F 39.2 °F 48% 29.78 in 10.0 mi SW 8.1 mph - N/A   Clear
1:55 AM 59.0 °F 37.4 °F 45% 29.78 in 10.0 mi SW 9.2 mph - N/A   Clear
2:15 AM 60.8 °F 39.2 °F 45% 29.78 in 10.0 mi SSW 9.2 mph - N/A   Clear
2:35 AM 59.0 °F 39.2 °F 48% 29.78 in 10.0 mi SW 11.5 mph - N/A   Clear
2:55 AM 60.8 °F 39.2 °F 45% 29.78 in 10.0 mi SW 10.4 mph - N/A   Clear
3:15 AM 59.0 °F 39.2 °F 48% 29.78 in 10.0 mi SW 11.5 mph - N/A   Clear
3:35 AM 55.4 °F 39.2 °F 54% 29.78 in 10.0 mi WSW 10.4 mph - N/A   Clear
3:55 AM 55.4 °F 41.0 °F 58% 29.78 in 10.0 mi WSW 8.1 mph - N/A   Clear
4:15 AM 55.4 °F 41.0 °F 58% 29.78 in 10.0 mi WSW 9.2 mph - N/A   Clear
4:35 AM 53.6 °F 39.2 °F 58% 29.78 in 10.0 mi WSW 6.9 mph - N/A   Clear
4:55 AM 53.6 °F 41.0 °F 62% 29.78 in 10.0 mi West 3.5 mph - N/A   Clear
5:15 AM 53.6 °F 41.0 °F 62% 29.78 in 10.0 mi West 3.5 mph - N/A   Clear
5:35 AM 53.6 °F 41.0 °F 62% 29.78 in 10.0 mi SW 5.8 mph - N/A   Clear
5:55 AM 55.4 °F 41.0 °F 58% 29.78 in 10.0 mi SW 9.2 mph - N/A   Clear
6:15 AM 55.4 °F 41.0 °F 58% 29.79 in 10.0 mi SW 10.4 mph - N/A   Clear
6:35 AM 55.4 °F 41.0 °F 58% 29.79 in 10.0 mi SW 10.4 mph - N/A   Clear
6:55 AM 55.4 °F 41.0 °F 58% 29.80 in 10.0 mi WSW 8.1 mph - N/A   Clear
7:15 AM 53.6 °F 41.0 °F 62% 29.80 in 10.0 mi WSW 6.9 mph - N/A   Clear
7:35 AM 51.8 °F 41.0 °F 67% 29.81 in 10.0 mi SW 5.8 mph - N/A   Clear
7:55 AM 51.8 °F 41.0 °F 67% 29.81 in 10.0 mi SW 6.9 mph - N/A   Clear
8:15 AM 51.8 °F 41.0 °F 67% 29.81 in 10.0 mi SW 6.9 mph - N/A   Clear
8:35 AM 53.6 °F 42.8 °F 67% 29.82 in 10.0 mi SW 10.4 mph - N/A   Clear
8:55 AM 57.2 °F 41.0 °F 55% 29.83 in 10.0 mi SW 9.2 mph - N/A   Clear
9:15 AM 60.8 °F 41.0 °F 48% 29.83 in 10.0 mi WSW 11.5 mph - N/A   Clear
9:55 AM 69.8 °F 37.4 °F 31% 29.84 in 10.0 mi WSW 13.8 mph - N/A   Clear
10:15 AM 71.6 °F 39.2 °F 31% 29.85 in 10.0 mi West 20.7 mph - N/A   Clear
10:55 AM 77.0 °F 37.4 °F 24% 29.86 in 10.0 mi West 19.6 mph 24.2 mph N/A   Clear
11:15 AM 78.8 °F 37.4 °F 23% 29.86 in 10.0 mi West 20.7 mph 26.5 mph N/A   Clear
11:55 AM 80.6 °F 35.6 °F 20% 29.86 in 10.0 mi West 21.9 mph 26.5 mph N/A   Clear
12:15 PM 82.4 °F 35.6 °F 19% 29.86 in 10.0 mi West 20.7 mph 27.6 mph N/A   Clear
12:35 PM 82.4 °F 33.8 °F 17% 29.86 in 10.0 mi West 20.7 mph 26.5 mph N/A   Clear
12:55 PM 82.4 °F 33.8 °F 17% 29.86 in 10.0 mi WSW 24.2 mph 29.9 mph N/A   Clear
1:15 PM 82.4 °F 33.8 °F 17% 29.85 in 10.0 mi West 21.9 mph 28.8 mph N/A   Clear
1:35 PM 82.4 °F 33.8 °F 17% 29.84 in 10.0 mi WSW 21.9 mph 27.6 mph N/A   Clear
1:55 PM 82.4 °F 33.8 °F 17% 29.84 in 10.0 mi WSW 24.2 mph 28.8 mph N/A   Clear
2:15 PM 82.4 °F 33.8 °F 17% 29.83 in 10.0 mi WSW 18.4 mph 28.8 mph N/A   Clear
2:35 PM 84.2 °F 33.8 °F 16% 29.82 in 10.0 mi West 19.6 mph 27.6 mph N/A   Clear
2:55 PM 86.0 °F 33.8 °F 15% 29.81 in 10.0 mi WSW 20.7 mph 27.6 mph N/A   Clear
3:35 PM 87.8 °F 32.0 °F 14% 29.80 in 10.0 mi West 24.2 mph 29.9 mph N/A   Clear
3:55 PM 87.8 °F 32.0 °F 14% 29.80 in 10.0 mi WSW 20.7 mph 26.5 mph N/A   Clear
4:15 PM 87.8 °F 30.2 °F 13% 29.80 in 10.0 mi WSW 18.4 mph 28.8 mph N/A   Clear
4:35 PM 87.8 °F 30.2 °F 13% 29.80 in 10.0 mi WSW 19.6 mph 26.5 mph N/A   Clear
5:35 PM 84.2 °F 30.2 °F 14% 29.81 in 10.0 mi SW 16.1 mph 23.0 mph N/A   Clear
5:55 PM 82.4 °F 32.0 °F 16% 29.81 in 10.0 mi SW 16.1 mph 23.0 mph N/A   Clear
6:15 PM 82.4 °F 32.0 °F 16% 29.81 in 10.0 mi SW 15.0 mph 21.9 mph N/A   Clear
6:35 PM 80.6 °F 32.0 °F 17% 29.82 in 10.0 mi SW 12.7 mph 18.4 mph N/A   Clear
6:55 PM 78.8 °F 32.0 °F 18% 29.82 in 10.0 mi SW 9.2 mph - N/A   Clear
7:15 PM 77.0 °F 33.8 °F 21% 29.83 in 10.0 mi SW 8.1 mph - N/A   Clear
7:35 PM 73.4 °F 33.8 °F 23% 29.83 in 10.0 mi SW 8.1 mph - N/A   Clear
7:55 PM 71.6 °F 33.8 °F 25% 29.83 in 10.0 mi SW 10.4 mph - N/A   Clear
8:35 PM 69.8 °F 33.8 °F 27% 29.84 in 10.0 mi SW 8.1 mph - N/A   Clear
8:55 PM 64.4 °F 32.0 °F 30% 29.84 in 10.0 mi WSW 6.9 mph - N/A   Clear
9:35 PM 62.6 °F 32.0 °F 32% 29.85 in 10.0 mi SW 6.9 mph - N/A   Clear
9:55 PM 64.4 °F 32.0 °F 30% 29.85 in 10.0 mi SW 8.1 mph - N/A   Clear
10:15 PM 64.4 °F 33.8 °F 32% 29.85 in 10.0 mi SW 5.8 mph - N/A   Clear
10:35 PM 60.8 °F 33.8 °F 36% 29.85 in 10.0 mi SW 4.6 mph - N/A   Clear
11:15 PM 60.8 °F 33.8 °F 36% 29.85 in 10.0 mi SW 5.8 mph - N/A   Clear
11:35 PM 62.6 °F 33.8 °F 34% 29.86 in 10.0 mi SW 6.9 mph - N/A   Clear
11:55 PM 66.2 °F 35.6 °F 32% 29.85 in 10.0 mi SW 8.1 mph - N/A   Clear